| time (UTC) | temp C | wind direction | speed KPH | gust KPH | rain 1hr cm | rain 24hr cm | rain mn cm | humidity % | barometer mb |
| 20260504231912 | 11 | 322 | 1.6 | 3.2 | 0.00 | 0.00 | 0.00 | 84 | 1010.5 |
| 20260504231649 | 11 | 313 | 1.6 | 3.2 | 0.00 | 0.00 | 0.00 | 84 | 1010.5 |
| 20260504230904 | 11 | 55 | 1.6 | 3.2 | 0.00 | 0.00 | 0.00 | 84 | 1010.4 |
| 20260504230402 | 11 | 355 | 0.0 | 3.2 | 0.00 | 0.00 | 0.00 | 83 | 1010.5 |
| 20260504230138 | 12 | 273 | 0.0 | 3.2 | 0.00 | 0.00 | 0.00 | 83 | 1010.6 |
| 20260504225617 | 12 | 273 | 0.0 | 3.2 | 0.00 | 0.00 | 0.00 | 83 | 1010.6 |
| 20260504224847 | 12 | 273 | 0.0 | 3.2 | 0.00 | 0.00 | 0.00 | 83 | 1010.6 |
| 20260504224341 | 12 | 277 | 0.0 | 3.2 | 0.00 | 0.00 | 0.00 | 83 | 1010.7 |
| 20260504223841 | 12 | 333 | 0.0 | 3.2 | 0.00 | 0.00 | 0.00 | 83 | 1010.6 |
| 20260504223335 | 12 | 338 | 1.6 | 3.2 | 0.00 | 0.00 | 0.00 | 82 | 1010.8 |
| 20260504222835 | 12 | 45 | 1.6 | 4.8 | 0.00 | 0.00 | 0.00 | 82 | 1010.8 |
| 20260504222333 | 12 | 45 | 1.6 | 4.8 | 0.00 | 0.00 | 0.00 | 82 | 1010.9 |
| 20260504221831 | 12 | 323 | 1.6 | 3.2 | 0.00 | 0.00 | 0.00 | 81 | 1011.1 |
| 20260504221333 | 12 | 215 | 1.6 | 3.2 | 0.00 | 0.00 | 0.00 | 82 | 1010.9 |
| 20260504220829 | 12 | 290 | 0.0 | 3.2 | 0.00 | 0.00 | 0.00 | 82 | 1010.9 |
| 20260504220329 | 12 | 290 | 1.6 | 1.6 | 0.00 | 0.00 | 0.00 | 81 | 1011.1 |
| 20260504215823 | 12 | 290 | 0.0 | 1.6 | 0.00 | 0.00 | 0.00 | 81 | 1011.2 |
| 20260504215600 | 12 | 313 | 0.0 | 1.6 | 0.00 | 0.00 | 0.00 | 80 | 1011.1 |
| 20260504214813 | 13 | 314 | 0.0 | 3.2 | 0.00 | 0.00 | 0.00 | 79 | 1011.2 |
| 20260504214307 | 13 | 314 | 0.0 | 3.2 | 0.00 | 0.00 | 0.00 | 78 | 1011.2 |
| 20260504214036 | 13 | 314 | 0.0 | 3.2 | 0.00 | 0.00 | 0.00 | 78 | 1011.2 |
| 20260504213258 | 13 | 309 | 0.0 | 1.6 | 0.00 | 0.00 | 0.00 | 77 | 1011.3 |
| 20260504212752 | 13 | 302 | 0.0 | 1.6 | 0.00 | 0.00 | 0.00 | 77 | 1011.3 |
| 20260504212249 | 13 | 304 | 0.0 | 3.2 | 0.00 | 0.00 | 0.00 | 77 | 1011.3 |
| 20260504211738 | 13 | 304 | 0.0 | 3.2 | 0.00 | 0.00 | 0.00 | 77 | 1011.3 |
| 20260504211231 | 14 | 242 | 0.0 | 3.2 | 0.00 | 0.00 | 0.00 | 76 | 1011.3 |
| 20260504210732 | 14 | 241 | 0.0 | 3.2 | 0.00 | 0.00 | 0.00 | 75 | 1011.3 |
| 20260504210507 | 14 | 247 | 1.6 | 6.4 | 0.00 | 0.00 | 0.00 | 74 | 1011.5 |
| 20260504205731 | 14 | 225 | 1.6 | 6.4 | 0.00 | 0.00 | 0.00 | 75 | 1011.4 |
| 20260504205230 | 14 | 38 | 0.0 | 3.2 | 0.00 | 0.00 | 0.00 | 75 | 1011.3 |
| 20260504204721 | 14 | 317 | 1.6 | 3.2 | 0.00 | 0.00 | 0.00 | 75 | 1011.4 |
| 20260504204215 | 14 | 309 | 1.6 | 1.6 | 0.00 | 0.00 | 0.00 | 74 | 1011.4 |
| 20260504203703 | 14 | 256 | 0.0 | 3.2 | 0.00 | 0.00 | 0.00 | 73 | 1011.4 |
| 20260504203203 | 15 | 256 | 0.0 | 3.2 | 0.00 | 0.00 | 0.00 | 72 | 1011.4 |
| 20260504202915 | 15 | 256 | 0.0 | 3.2 | 0.00 | 0.00 | 0.00 | 71 | 1011.5 |
| 20260504202134 | 15 | 256 | 0.0 | 3.2 | 0.00 | 0.00 | 0.00 | 71 | 1011.5 |
| 20260504201630 | 16 | 256 | 0.0 | 1.6 | 0.00 | 0.00 | 0.00 | 69 | 1011.6 |
| 20260504201131 | 16 | 256 | 0.0 | 1.6 | 0.00 | 0.00 | 0.00 | 68 | 1011.6 |
| 20260504200645 | 16 | 219 | 0.0 | 3.2 | 0.00 | 0.00 | 0.00 | 67 | 1011.6 |
| 20260504200120 | 16 | 217 | 0.0 | 3.2 | 0.00 | 0.00 | 0.00 | 66 | 1011.6 |
| 20260504195609 | 16 | 130 | 1.6 | 3.2 | 0.00 | 0.00 | 0.00 | 65 | 1011.7 |
| 20260504195109 | 17 | 74 | 0.0 | 3.2 | 0.00 | 0.00 | 0.00 | 63 | 1011.6 |
| 20260504194608 | 17 | 355 | 0.0 | 3.2 | 0.00 | 0.00 | 0.00 | 63 | 1011.7 |
| 20260504194353 | 17 | 347 | 0.0 | 3.2 | 0.00 | 0.00 | 0.00 | 61 | 1011.7 |
| 20260504193604 | 18 | 347 | 0.0 | 3.2 | 0.00 | 0.00 | 0.00 | 60 | 1011.8 |
| 20260504193103 | 18 | 284 | 1.6 | 4.8 | 0.00 | 0.00 | 0.00 | 60 | 1011.8 |
| 20260504192603 | 19 | 214 | 1.6 | 4.8 | 0.00 | 0.00 | 0.00 | 57 | 1011.8 |
| 20260504192105 | 19 | 224 | 1.6 | 6.4 | 0.00 | 0.00 | 0.00 | 56 | 1011.8 |
| 20260504191847 | 19 | 223 | 1.6 | 8.0 | 0.00 | 0.00 | 0.00 | 56 | 1011.8 |
| 20260504191107 | 20 | 181 | 3.2 | 8.0 | 0.00 | 0.00 | 0.00 | 56 | 1011.7 |
| 20260504190605 | 20 | 177 | 3.2 | 6.4 | 0.00 | 0.00 | 0.00 | 55 | 1011.6 |
| 20260504190110 | 20 | 176 | 3.2 | 12.9 | 0.00 | 0.00 | 0.00 | 56 | 1011.7 |
| 20260504185605 | 20 | 204 | 3.2 | 12.9 | 0.00 | 0.00 | 0.00 | 55 | 1011.6 |
| 20260504185052 | 20 | 173 | 3.2 | 8.0 | 0.00 | 0.00 | 0.00 | 55 | 1011.5 |
| 20260504184549 | 20 | 210 | 3.2 | 9.7 | 0.00 | 0.00 | 0.00 | 54 | 1011.5 |
| 20260504184047 | 20 | 164 | 3.2 | 9.7 | 0.00 | 0.00 | 0.00 | 53 | 1011.4 |
| 20260504183559 | 21 | 147 | 4.8 | 11.3 | 0.00 | 0.00 | 0.00 | 53 | 1011.4 |
| 20260504183552 | 21 | 217 | 3.2 | 9.7 | 0.00 | 0.00 | 0.00 | 53 | 1011.5 |
| 20260504182527 | 21 | 223 | 4.8 | 17.7 | 0.00 | 0.00 | 0.00 | 52 | 1011.4 |
| 20260504182025 | 21 | 179 | 4.8 | 19.3 | 0.00 | 0.00 | 0.00 | 52 | 1011.4 |
| 20260504181523 | 21 | 178 | 4.8 | 19.3 | 0.00 | 0.00 | 0.00 | 52 | 1011.3 |
| 20260504181022 | 21 | 165 | 4.8 | 14.5 | 0.00 | 0.00 | 0.00 | 52 | 1011.4 |
| 20260504180522 | 22 | 211 | 6.4 | 14.5 | 0.00 | 0.00 | 0.00 | 52 | 1011.3 |
| 20260504180022 | 22 | 243 | 4.8 | 14.5 | 0.00 | 0.00 | 0.00 | 51 | 1011.2 |
| 20260504175521 | 22 | 195 | 4.8 | 14.5 | 0.00 | 0.00 | 0.00 | 52 | 1011.3 |
| 20260504175021 | 22 | 182 | 4.8 | 14.5 | 0.00 | 0.00 | 0.00 | 52 | 1011.4 |
| 20260504174522 | 22 | 213 | 6.4 | 12.9 | 0.00 | 0.00 | 0.00 | 51 | 1011.3 |
| 20260504174020 | 22 | 211 | 4.8 | 12.9 | 0.00 | 0.00 | 0.00 | 51 | 1011.3 |
| 20260504173517 | 22 | 216 | 4.8 | 14.5 | 0.00 | 0.00 | 0.00 | 52 | 1011.2 |
| 20260504173306 | 22 | 175 | 4.8 | 14.5 | 0.00 | 0.00 | 0.00 | 51 | 1011.2 |
| 20260504172805 | 22 | 207 | 4.8 | 11.3 | 0.00 | 0.00 | 0.00 | 50 | 1011.3 |
| 20260504172014 | 23 | 163 | 4.8 | 16.1 | 0.00 | 0.00 | 0.00 | 50 | 1011.3 |
| 20260504171511 | 23 | 159 | 3.2 | 16.1 | 0.00 | 0.00 | 0.00 | 49 | 1011.3 |
| 20260504171010 | 23 | 196 | 4.8 | 12.9 | 0.00 | 0.00 | 0.00 | 49 | 1011.3 |
| 20260504170511 | 23 | 181 | 3.2 | 14.5 | 0.00 | 0.00 | 0.00 | 49 | 1011.3 |
| 20260504150908 | 27 | 206 | 4.8 | 14.5 | 0.00 | 0.00 | 0.00 | 43 | 1012.3 |
| 20260504150409 | 27 | 156 | 6.4 | 14.5 | 0.00 | 0.00 | 0.00 | 43 | 1012.4 |
| 20260504140907 | 27 | 146 | 4.8 | 14.5 | 0.00 | 0.00 | 0.00 | 43 | 1013.0 |
| 20260504140644 | 28 | 155 | 6.4 | 19.3 | 0.00 | 0.00 | 0.00 | 42 | 1013.2 |
| 20260504130330 | 26 | 121 | 9.7 | 24.1 | 0.00 | 0.00 | 0.00 | 46 | 1014.0 |
| 20260504130108 | 26 | 111 | 9.7 | 24.1 | 0.00 | 0.00 | 0.00 | 47 | 1014.1 |
| 20260504120304 | 26 | 150 | 4.8 | 11.3 | 0.00 | 0.00 | 0.00 | 44 | 1014.8 |
| 20260504110234 | 24 | 96 | 6.4 | 14.5 | 0.00 | 0.00 | 0.00 | 50 | 1015.3 |
| 20260504100233 | 22 | 105 | 6.4 | 19.3 | 0.00 | 0.00 | 0.00 | 54 | 1015.7 |
| 20260504081703 | 20 | 232 | 1.6 | 8.0 | 0.00 | 0.00 | 0.00 | 63 | 1016.0 |
| 20260504081452 | 20 | 77 | 3.2 | 8.0 | 0.00 | 0.00 | 0.00 | 63 | 1016.1 |
| 20260504080706 | 20 | 92 | 4.8 | 8.0 | 0.00 | 0.00 | 0.00 | 63 | 1016.0 |
| 20260504080202 | 19 | 101 | 3.2 | 6.4 | 0.00 | 0.00 | 0.00 | 66 | 1015.9 |
| 20260504070133 | 16 | 170 | 0.0 | 3.2 | 0.00 | 0.00 | 0.00 | 71 | 1015.5 |
| 20260504050350 | 9 | 53 | 0.0 | 3.2 | 0.00 | 0.00 | 0.00 | 98 | 1014.4 |
| 20260504045600 | 8 | 70 | 0.0 | 3.2 | 0.00 | 0.00 | 0.00 | 98 | 1014.4 |
| 20260504045104 | 8 | 57 | 0.0 | 3.2 | 0.00 | 0.00 | 0.00 | 97 | 1014.4 |
| 20260504044602 | 8 | 31 | 0.0 | 3.2 | 0.00 | 0.00 | 0.00 | 97 | 1014.4 |
| 20260504044134 | 8 | 323 | 0.0 | 3.2 | 0.00 | 0.00 | 0.00 | 96 | 1014.3 |
| 20260504044125 | 8 | 355 | 0.0 | 3.2 | 0.00 | 0.00 | 0.00 | 97 | 1014.4 |
| 20260504043100 | 8 | 323 | 0.0 | 1.6 | 0.00 | 0.00 | 0.00 | 96 | 1014.4 |
| 20260504042551 | 8 | 323 | 0.0 | 3.2 | 0.00 | 0.00 | 0.00 | 96 | 1014.3 |
| 20260504042053 | 8 | 323 | 0.0 | 3.2 | 0.00 | 0.00 | 0.00 | 95 | 1014.3 |
| 20260504041549 | 8 | 323 | 0.0 | 3.2 | 0.00 | 0.00 | 0.00 | 95 | 1014.3 |
| 20260504041051 | 8 | 323 | 0.0 | 3.2 | 0.00 | 0.00 | 0.00 | 95 | 1014.3 |
| 20260504040547 | 8 | 323 | 0.0 | 3.2 | 0.00 | 0.00 | 0.00 | 94 | 1014.3 |
| 20260504040042 | 8 | 323 | 0.0 | 3.2 | 0.00 | 0.00 | 0.00 | 93 | 1014.3 |
| 20260504035537 | 8 | 323 | 0.0 | 3.2 | 0.00 | 0.00 | 0.00 | 93 | 1014.2 |
| 20260504035035 | 8 | 323 | 0.0 | 3.2 | 0.00 | 0.00 | 0.00 | 93 | 1014.2 |
| 20260504034531 | 8 | 323 | 0.0 | 3.2 | 0.00 | 0.00 | 0.00 | 93 | 1014.3 |
| 20260504034312 | 8 | 323 | 0.0 | 0.0 | 0.00 | 0.00 | 0.00 | 92 | 1014.3 |
| 20260504033531 | 8 | 323 | 0.0 | 0.0 | 0.00 | 0.00 | 0.00 | 92 | 1014.3 |
| 20260504033029 | 8 | 323 | 0.0 | 0.0 | 0.00 | 0.00 | 0.00 | 92 | 1014.3 |
| 20260504032529 | 8 | 323 | 0.0 | 3.2 | 0.00 | 0.00 | 0.00 | 92 | 1014.3 |
| 20260504032250 | 9 | 323 | 0.0 | 3.2 | 0.00 | 0.00 | 0.00 | 92 | 1014.3 |
| 20260504031749 | 9 | 323 | 0.0 | 3.2 | 0.00 | 0.00 | 0.00 | 92 | 1014.2 |
| 20260504031005 | 9 | 323 | 0.0 | 3.2 | 0.00 | 0.00 | 0.00 | 91 | 1014.3 |
| 20260504030502 | 9 | 323 | 0.0 | 3.2 | 0.00 | 0.00 | 0.00 | 92 | 1014.4 |
| 20260504030447 | 9 | 323 | 0.0 | 3.2 | 0.00 | 0.00 | 0.00 | 92 | 1014.4 |
| 20260504025431 | 9 | 323 | 0.0 | 3.2 | 0.00 | 0.00 | 0.00 | 92 | 1014.4 |
| 20260504024931 | 9 | 323 | 0.0 | 1.6 | 0.00 | 0.00 | 0.00 | 92 | 1014.4 |
| 20260504024427 | 9 | 323 | 0.0 | 3.2 | 0.00 | 0.00 | 0.00 | 92 | 1014.4 |
| 20260504023926 | 9 | 323 | 0.0 | 3.2 | 0.00 | 0.00 | 0.00 | 91 | 1014.4 |
| 20260504023405 | 9 | 323 | 0.0 | 3.2 | 0.00 | 0.00 | 0.00 | 91 | 1014.4 |
| 20260504022858 | 9 | 323 | 0.0 | 3.2 | 0.00 | 0.00 | 0.00 | 90 | 1014.4 |
| 20260504022352 | 9 | 323 | 0.0 | 3.2 | 0.00 | 0.00 | 0.00 | 90 | 1014.4 |
| 20260504021833 | 10 | 323 | 0.0 | 3.2 | 0.00 | 0.00 | 0.00 | 90 | 1014.4 |
| 20260504021331 | 10 | 323 | 0.0 | 3.2 | 0.00 | 0.00 | 0.00 | 90 | 1014.4 |
| 20260504020815 | 10 | 323 | 0.0 | 3.2 | 0.00 | 0.00 | 0.00 | 90 | 1014.4 |
| 20260504020530 | 10 | 323 | 0.0 | 3.2 | 0.00 | 0.00 | 0.00 | 89 | 1014.5 |
| 20260504015800 | 10 | 323 | 0.0 | 3.2 | 0.00 | 0.00 | 0.00 | 89 | 1014.5 |
| 20260504015302 | 10 | 335 | 0.0 | 3.2 | 0.00 | 0.00 | 0.00 | 89 | 1014.5 |
| 20260504014803 | 10 | 335 | 0.0 | 1.6 | 0.00 | 0.00 | 0.00 | 89 | 1014.5 |
| 20260504014302 | 10 | 336 | 0.0 | 3.2 | 0.00 | 0.00 | 0.00 | 88 | 1014.4 |
| 20260504013801 | 10 | 336 | 0.0 | 3.2 | 0.00 | 0.00 | 0.00 | 88 | 1014.5 |
| 20260504013301 | 10 | 336 | 0.0 | 3.2 | 0.00 | 0.00 | 0.00 | 88 | 1014.5 |
| 20260504012756 | 10 | 341 | 0.0 | 3.2 | 0.00 | 0.00 | 0.00 | 88 | 1014.5 |
| 20260504012256 | 10 | 342 | 0.0 | 1.6 | 0.00 | 0.00 | 0.00 | 88 | 1014.5 |
| 20260504011744 | 10 | 342 | 0.0 | 1.6 | 0.00 | 0.00 | 0.00 | 87 | 1014.5 |
| 20260504011233 | 10 | 346 | 0.0 | 3.2 | 0.00 | 0.00 | 0.00 | 87 | 1014.5 |
| 20260504010730 | 10 | 346 | 0.0 | 3.2 | 0.00 | 0.00 | 0.00 | 86 | 1014.5 |
| 20260504010459 | 10 | 347 | 0.0 | 3.2 | 0.00 | 0.00 | 0.00 | 86 | 1014.6 |
| 20260504005724 | 10 | 347 | 0.0 | 1.6 | 0.00 | 0.00 | 0.00 | 86 | 1014.6 |
| 20260504005452 | 10 | 347 | 0.0 | 3.2 | 0.00 | 0.00 | 0.00 | 85 | 1014.6 |
| 20260504004941 | 10 | 347 | 0.0 | 3.2 | 0.00 | 0.00 | 0.00 | 85 | 1014.6 |
| 20260504004203 | 11 | 347 | 0.0 | 3.2 | 0.00 | 0.00 | 0.00 | 85 | 1014.6 |
| 20260504003938 | 11 | 347 | 0.0 | 3.2 | 0.00 | 0.00 | 0.00 | 84 | 1014.6 |
| 20260504003435 | 11 | 347 | 0.0 | 3.2 | 0.00 | 0.00 | 0.00 | 84 | 1014.6 |
| 20260504002703 | 11 | 348 | 0.0 | 3.2 | 0.00 | 0.00 | 0.00 | 83 | 1014.6 |
| 20260504002202 | 11 | 347 | 0.0 | 3.2 | 0.00 | 0.00 | 0.00 | 83 | 1014.6 |
| 20260504001702 | 11 | 331 | 0.0 | 3.2 | 0.00 | 0.00 | 0.00 | 83 | 1014.7 |
| 20260504001202 | 11 | 315 | 0.0 | 3.2 | 0.00 | 0.00 | 0.00 | 83 | 1014.8 |
| 20260504000700 | 11 | 315 | 0.0 | 3.2 | 0.00 | 0.00 | 0.00 | 82 | 1014.8 |
| 20260504000201 | 11 | 315 | 0.0 | 3.2 | 0.00 | 0.00 | 0.00 | 82 | 1014.8 |
| 20260503235700 | 11 | 315 | 0.0 | 3.2 | 0.00 | 0.00 | 0.00 | 82 | 1014.7 |
| 20260503235159 | 11 | 315 | 0.0 | 3.2 | 0.00 | 0.00 | 0.00 | 82 | 1014.7 |
| 20260503234638 | 11 | 315 | 0.0 | 3.2 | 0.00 | 0.00 | 0.00 | 82 | 1014.7 |
| 20260503234130 | 11 | 315 | 0.0 | 3.2 | 0.00 | 0.00 | 0.00 | 82 | 1014.7 |
| 20260503233631 | 11 | 315 | 0.0 | 3.2 | 0.00 | 0.00 | 0.00 | 82 | 1014.8 |
| 20260503233129 | 12 | 315 | 0.0 | 1.6 | 0.00 | 0.00 | 0.00 | 82 | 1014.8 |
| 20260503232910 | 12 | 323 | 0.0 | 3.2 | 0.00 | 0.00 | 0.00 | 81 | 1014.8 |